Regional Weather Roundup
Issued by NWS Green Bay, WI

Home | Current Version | Previous Version | Graphics & Text | Print | Product List | Glossary Off
Versions: 1 2 3 4 5 6 7 8 9 10 11 12 13 14 15 16 17 18 19 20 21 22 23 24 25 26 27 28 29 30 31 32 33 34 35 36 37 38 39 40 41 42 43 44 45 46 47 48 49 50

689
ASUS43 KGRB 130911
RWRGRB

NORTH-CENTRAL AND NORTHEAST WISCONSIN REGIONAL WEATHER ROUNDUP
NATIONAL WEATHER SERVICE GREEN BAY WI
300 AM CST WED DEC 13 2017

WIZ005-009-010>012-018-019-131000-
NORTH CENTRAL WISCONSIN

CITY           SKY/WX    TMP DP  RH WIND       PRES   REMARKS
IRONWOOD       FLURRIES  13   8  81 SE12      29.55F WCI  -1
MANITOWISH WTR FLURRIES  11   8  89 SE7       29.54F WCI   0
ARBOR VITAE    FLURRIES  14  10  85 SE9       29.55F WCI   1
EAGLE RIVER    FLURRIES  11   6  79 SE7       29.57F WCI   0
LAND O LAKES   LGT SNOW  11   7  83 SE8       29.59F WCI  -1
RHINELANDER    CLOUDY    12   8  84 SE9       29.57F WCI   0
PHILLIPS       CLOUDY    13  11  90 SE8       29.53F WCI   2
ANTIGO         CLOUDY    10   8  89 SE10      29.61F WCI  -3
TOMAHAWK       LGT SNOW  12   8  87 SE3       29.58F
MERRILL        FLURRIES  13  10  86 SE9       29.59F WCI   1
$$

WIZ013-073-131000-
NORTHEAST WISCONSIN

CITY           SKY/WX    TMP DP  RH WIND       PRES   REMARKS
IRON MOUNTAIN  CLOUDY    11   4  73 SE8       29.67F WCI  -1
MARINETTE      FLURRIES  14   8  77 CALM      29.75F
OCONTO         CLOUDY    15   7  71 CALM      29.73F
$$

WIZ017-030-035>037-045-131000-
CENTRAL WISCONSIN

CITY           SKY/WX    TMP DP  RH WIND       PRES   REMARKS
MEDFORD        CLOUDY    14  11  89 SE8       29.55F WCI   2
WAUSAU         CLOUDY    13  10  88 SE10      29.59F WCI   0
MOSINEE        CLOUDY    14  12  92 SE10      29.61F WCI   1
MARSHFIELD     CLOUDY    16  12  84 SE14      29.56F WCI   2
WISC RAPIDS    CLOUDY    17  11  77 SE9       29.63F WCI   6
STEVENS POINT  CLOUDY    14  11  87 SE10      29.63F WCI   1
WAUPACA        CLOUDY    18  12  76 E6        29.68F WCI  10
SHAWANO        FLURRIES  16  10  78 SE6       29.70F WCI   8
CLINTONVILLE   NOT AVBL
WAUTOMA        CLOUDY    18  12  77 SE7       29.67F WCI   9
$$

WIZ038-039-048-051-131000-
FOX VALLEY

CITY           SKY/WX    TMP DP  RH WIND       PRES   REMARKS
NWS GREEN BAY  LGT SNOW  16   8  71 SE7       29.73F WCI   6
APPLETON       CLOUDY    18  10  73 SE13      29.67F WCI   4
OSHKOSH        CLOUDY    17  10  74 SE10      29.69F WCI   5
FOND DU LAC    CLOUDY    19   8  62 SE12      29.70F WCI   7
$$

WIZ022-050-052-131000-
EAST CENTRAL WISCONSIN

CITY           SKY/WX    TMP DP  RH WIND       PRES   REMARKS
EPHRAIM        CLOUDY    14   6  72 CALM      29.74F
WASHINGTON ISL CLOUDY    15   8  73 E3        29.75F
STURGEON BAY   CLOUDY    15   8  73 SE5       29.75F WCI   8
MANITOWOC      FLURRIES  16   8  71 S7        29.76F WCI   6
SHEBOYGAN      LGT SNOW  16  11  80 SE5       29.75F WCI   9
$$

LMZ563-521-522-541>543-131000-
LAKESHORE

STATION/POSITION TIME  TEMP    WIND        PRES    VSBY  WAVE
                       AIR SEA DIR/SP/G                  HT/PER
                 (UTC) (F)     (DEG/KT/KT) (MB)    (MI)  (FT/S)
SHEBOYGAN LKSHOR 0900   17     200/  8/  9 1009.0F
KEWAUNEE LKSHORE 0848   15     220/  3/  5 1007.4F
NORTHPORT PIER   0841   17      CALM  /  1 1008.1F
MENOMINEE LKSHOR 0848   17     150/  5/  6 1007.2F
$$




USA.gov is the U.S. government's official web portal to all federal, state and local government web resources and services.